Regional Weather Roundup
Issued by NWS

Home | Current Version | Previous Version | Graphics & Text | Print | Product List | Glossary On
Versions: 1 2 3 4 5 6 7 8 9 10 11 12 13 14 15 16 17 18 19 20 21 22 23 24 25 26 27 28 29 30 31 32 33 34 35 36 37 38 39 40 41 42 43 44 45 46 47 48 49 50
000
ASUS45 KTFX 222304
RWRMT
MONTANA HOURLY WEATHER ROUNDUP
NATIONAL WEATHER SERVICE GREAT FALLS MT
504 PM MDT WED OCT 22 2014

NOTE: "FAIR" INDICATES FEW OR NO CLOUDS BELOW 12000 FEET WITH NO
SIGNIFICANT WEATHER AND/OR OBSTRUCTIONS TO VISIBILITY.

* THESE STATIONS ARE NOT UNDER NWS QUALITY CONTROL. THEY DO NOT
   REPORT WEATHER SUCH AS PRECIPITATION OR FOG.

MTZ001>007-043-230000-
WEST OF THE DIVIDE
CITY           SKY/WX    TMP DP  RH WIND       PRES   REMARKS
KALISPELL      CLOUDY    57  37  47 SE15      29.90F
MISSOULA       MOCLDY    63  36  37 W5        29.95S
BUTTE          CLEAR     54  28  37 SW6       30.03F
MULLAN PASS    CLOUDY    43  34  71 VRB7      29.94F
* ESSEX        N/A       53  39  59 S2         N/A
* LINCOLN      N/A       56  33  42 W6G17      N/A
* POLSON       N/A       57  36  46 S2G10      N/A
* RONAN APT    PTCLDY    61  37  41 SE10G15    N/A
* SEELEY LAKE  N/A       55  32  42 S4G14      N/A
* THOMP F APT  PTCLDY    44  27  51 S11G20     N/A
$$

MTZ008-052>055-230000-
SOUTHWEST MONTANA
CITY           SKY/WX    TMP DP  RH WIND       PRES   REMARKS
BOZEMAN        CLEAR     57  28  33 W9        30.02S
DILLON         CLEAR     55  28  35 S14       30.04F
W YELLOWSTONE  PTCLDY    43  28  56 SW9G17    30.18S
* THREE FORKS  CLEAR     59  45  60 SW7        N/A
* BOULDER HILL N/A       52  25  35 S21G29     N/A
* MONIDA PASS  N/A       42  27  55 SE16G24    N/A
* RAYNOLDS PAS N/A       45  25  45 SE11G17    N/A
* WHITEHALL    N/A       60  29  31 SW15G25    N/A
* WISE RIVER   N/A       52  29  41 W13G24     N/A
$$

MTZ009>010-012-014-046-048-049-054-230000-
EAST SLOPES AND CENTRAL MONTANA
CITY           SKY/WX    TMP DP  RH WIND       PRES   REMARKS
CUT BANK       PTCLDY    55  32  42 W15       29.82S
GREAT FALLS    CLEAR     59  32  36 SW17G30   29.85F
HELENA         CLEAR     63  28  27 SW5       29.93F
MALMSTROM AFB  CLEAR     59  34  39 SW18G29   29.87F
* CONRAD       CLEAR     63  32  31 N/A        N/A
* DEARBORN     N/A       61  30  31 S19G24     N/A
* EAST GLACIER N/A       51  32  48 W30G42     N/A
* MONARCH      N/A       51  19  28 S17G28     N/A
* PENDROY      N/A       59  25  27 SW5        N/A
* ROGERS PASS  N/A       50  31  48 SE19G33    N/A
* SAINT MARY   N/A       53  32  45 S9G28      N/A
* SWEET GRASS  N/A       58  31  36 SW25G30    N/A
$$

MTZ011-013-016-021-035-040-045-047-050-051-230000-
NORTH CENTRAL MONTANA
CITY           SKY/WX    TMP DP  RH WIND       PRES   REMARKS
HAVRE          CLEAR     63  34  34 SW16      29.82F
LEWISTOWN      CLEAR     59  30  33 W20       29.92R
* CHESTER      N/A       61  32  34 SW7G14     N/A
* DENTON       N/A       61  26  26 W17        N/A
* GEYSER       N/A       57  25  29 SW16G22    N/A
* JUDITH GAP   N/A       55  30  39 W26G32     N/A
* LOMA         N/A       62  33  34 SW17G29    N/A
$$

MTZ017>020-022>027-061-062-230000-
NORTHEAST MONTANA
CITY           SKY/WX    TMP DP  RH WIND       PRES   REMARKS
GLASGOW        PTCLDY    61  30  31 W14       29.83F
GLENDIVE       CLEAR     61  32  34 W14G22    29.90S
JORDAN         CLEAR     63  28  27 W8        29.87F
SIDNEY         CLEAR     63  34  34 W15G21    29.86S
WOLF POINT     CLEAR     63  34  34 W16       29.83F
* BEAVER HILL  N/A       60  31  33 W15G27     N/A
* CIRCLE       N/A       61  34  36 SW12       N/A
* LINDSAY DVD  N/A       59  30  33 W17        N/A
* NAVAJO       N/A       59  36  42 W17G26     N/A
$$

MTZ028>042-056>058-230000-
SOUTHCENTRAL AND SOUTHEAST MONTANA
CITY           SKY/WX    TMP DP  RH WIND       PRES   REMARKS
BAKER          PTCLDY    61  30  31 W10G23    29.93S
BILLINGS       CLEAR     64  19  18 SW14      29.93F
LIVINGSTON     CLEAR     57  27  32 SW26G35   29.99R
MILES CITY     CLEAR     63  27  26 W12       29.91S
* LAUREL APT   CLEAR     66  19  16 SW9        N/A
* ROUNDUP APT  CLEAR     63  25  24 W17G25     N/A
* ALZADA       N/A       61  27  27 SW6        N/A
* HYSHAM       N/A       61  25  25 W6G20      N/A
* LAME DEER    N/A       58  23  26 W6G14      N/A
* REED POINT   N/A       61  26  26 W17G24     N/A
* ROSCOE HILL  N/A       58  14  18 SW11G20    N/A
$$

REGIONAL REPORTS...DAKOTAS
CITY           SKY/WX    TMP DP  RH WIND       PRES   REMARKS
WILLISTON      CLEAR     63  36  37 W14G23    29.81S
DICKINSON      CLEAR     61  34  36 W18       29.87R
BEACH          N/A       59  32  36 W12       29.90S
CROSBY         CLOUDY    57  46  67 W12       29.79S
TIOGA          CLOUDY    57  41  55 W16       29.83F
BISMARCK       CLEAR     66  37  34 W15       29.86R
GRAND FORKS    LGT RAIN  55  54  96 S10       29.82R
FARGO          LGT RAIN  57  54  90 SW5       29.85S
BUFFALO SD     CLEAR     61  27  27 W21       29.89S
RAPID CITY     CLEAR     63  34  34 SE3       29.99S
$$

REGIONAL REPORTS...WYOMING/IDAHO/WASHINGTON
CITY           SKY/WX    TMP DP  RH WIND       PRES   REMARKS
GILLETTE       CLEAR     61  23  23 CALM      29.99S
SHERIDAN       CLEAR     63  23  22 CALM      29.97F
CODY           CLEAR     57  21  25 W16G26    30.02S
YELLOWSTONE LA PTCLDY    37  25  62 VRB3      30.22S
SALMON         PTCLDY   N/A N/A N/A N/A        N/A
MULLAN PASS    CLOUDY    43  34  71 VRB7      29.94S
SAND POINT     N/A       50  48  93 E3        29.88S
SPOKANE        LGT RAIN  54  48  80 W5        29.84F

$$




USA.gov is the U.S. government's official web portal to all federal, state and local government web resources and services.